Location: Zagreb
(45.8000°N, 16.0000°E)
Time: 14:25:06
(UTC+02:00)

Transit 2A Rocket - Pass Details

Date: 16 August 2022
Orbit: 593 x 907 km, 66.7° (Epoch: 25 September)

Event Time Altitude Azimuth Distance (km) Brightness Sun altitude
Rises 01:30:53 0° 336° (NNW) 2,848 8.8 -30.0°
Reaches altitude 10° 01:33:41 10° 355° (N) 1,960 8.0 -29.9°
Maximum altitude 01:36:50 19° 41° (NE) 1,489 7.1 -29.8°
Enters shadow 01:40:04 10° 87° (E) 2,028 7.3 -29.7°
Drops below altitude 10° 01:40:05 10° 87° (E) 2,032 - -29.7°
Sets 01:43:02 0° 105° (ESE) 2,992 - -29.6°
